TimeEDT,TemperatureF,Dew PointF,Humidity,Sea Level PressureIn,VisibilityMPH,Wind Direction,Wind SpeedMPH,Gust SpeedMPH,PrecipitationIn,Events,Conditions,WindDirDegrees,DateUTC
12:53 AM,64.9,59.0,81,30.17,10.0,Calm,Calm,-,N/A,,Overcast,0,2013-08-18 04:53:00
1:53 AM,64.9,61.0,87,30.17,8.0,Calm,Calm,-,0.00,Rain,Light Rain,0,2013-08-18 05:53:00
2:53 AM,63.0,61.0,93,30.16,3.0,Calm,Calm,-,0.16,Rain,Heavy Rain,0,2013-08-18 06:53:00
3:02 AM,62.6,60.8,94,30.19,2.0,Calm,Calm,-,0.05,Rain,Heavy Rain,0,2013-08-18 07:02:00
3:17 AM,62.6,60.8,94,30.19,6.0,Calm,Calm,-,0.08,Rain,Rain,0,2013-08-18 07:17:00
3:53 AM,63.0,61.0,93,30.16,5.0,Calm,Calm,-,0.10,Rain,Light Rain,0,2013-08-18 07:53:00
4:53 AM,62.1,60.1,93,30.15,10.0,Calm,Calm,-,0.02,,Overcast,0,2013-08-18 08:53:00
5:53 AM,63.0,60.1,90,30.17,10.0,East,5.8,-,0.00,Rain,Light Rain,80,2013-08-18 09:53:00
6:53 AM,63.0,60.1,90,30.18,10.0,NE,5.8,-,0.01,Rain,Light Rain,40,2013-08-18 10:53:00
7:53 AM,63.0,60.1,90,30.19,8.0,Calm,Calm,-,0.01,Rain,Light Rain,0,2013-08-18 11:53:00
8:53 AM,64.0,61.0,90,30.19,10.0,East,4.6,-,0.01,Rain,Light Rain,80,2013-08-18 12:53:00
9:53 AM,66.0,61.0,84,30.20,10.0,Calm,Calm,-,0.00,,Overcast,0,2013-08-18 13:53:00
10:53 AM,66.9,62.1,84,30.20,10.0,NE,3.5,-,N/A,,Overcast,40,2013-08-18 14:53:00
11:53 AM,69.1,62.1,78,30.19,10.0,Calm,Calm,-,N/A,,Overcast,0,2013-08-18 15:53:00
12:53 PM,71.1,63.0,75,30.18,10.0,Calm,Calm,-,N/A,,Overcast,0,2013-08-18 16:53:00
1:53 PM,73.0,63.0,71,30.17,10.0,Calm,Calm,-,N/A,,Scattered Clouds,0,2013-08-18 17:53:00
2:53 PM,73.9,64.0,71,30.16,10.0,WNW,3.5,-,N/A,,Scattered Clouds,300,2013-08-18 18:53:00
3:15 PM,73.4,64.4,73,30.20,10.0,North,5.8,-,N/A,,Mostly Cloudy,350,2013-08-18 19:15:00
3:42 PM,73.4,64.4,73,30.19,10.0,NNW,6.9,-,N/A,,Overcast,330,2013-08-18 19:42:00
3:53 PM,73.0,64.0,73,30.16,10.0,NNW,9.2,-,N/A,,Overcast,340,2013-08-18 19:53:00
4:53 PM,71.1,64.9,81,30.15,6.0,NNW,5.8,-,0.01,Rain,Light Rain,340,2013-08-18 20:53:00
5:53 PM,70.0,66.0,87,30.15,9.0,West,3.5,-,0.00,,Overcast,280,2013-08-18 21:53:00
6:31 PM,69.8,66.2,88,30.18,10.0,Calm,Calm,-,N/A,,Overcast,0,2013-08-18 22:31:00
6:34 PM,69.8,66.2,88,30.18,10.0,Calm,Calm,-,N/A,,Overcast,0,2013-08-18 22:34:00
6:53 PM,70.0,66.0,87,30.14,8.0,Calm,Calm,-,N/A,,Overcast,0,2013-08-18 22:53:00
7:31 PM,69.8,66.2,88,30.18,2.5,Calm,Calm,-,0.01,Rain,Light Rain,0,2013-08-18 23:31:00
7:53 PM,69.1,66.0,90,30.14,7.0,Calm,Calm,-,0.01,,Overcast,0,2013-08-18 23:53:00
8:31 PM,68.0,66.2,94,30.16,9.0,East,5.8,-,N/A,,Mostly Cloudy,90,2013-08-19 00:31:00
8:53 PM,68.0,64.9,90,30.13,8.0,Calm,Calm,-,N/A,,Mostly Cloudy,0,2013-08-19 00:53:00
9:53 PM,68.0,66.0,93,30.14,6.0,Calm,Calm,-,N/A,,Overcast,0,2013-08-19 01:53:00
10:53 PM,66.9,64.9,93,30.14,8.0,Calm,Calm,-,N/A,,Overcast,0,2013-08-19 02:53:00
11:53 PM,66.9,64.9,93,30.14,10.0,Calm,Calm,-,N/A,,Overcast,0,2013-08-19 03:53:00